Weather reports worldwide

Advertisment
Miles City MT, United States of America (74230): temperature & dewpoint: 02.07.2020 08:00:00 - 08.07.2020 08:00:00 (MDT)Miles City MT, United States of America (74230): wind speed & gusts: 02.07.2020 08:00:00 - 08.07.2020 08:00:00 (MDT)Miles City MT, United States of America (74230): wind direction: 02.07.2020 08:00:00 - 08.07.2020 08:00:00 (MDT)Miles City MT, United States of America (74230): reduced air pressure: 02.07.2020 08:00:00 - 08.07.2020 08:00:00 (MDT)Miles City MT, United States of America (74230): visibility: 02.07.2020 08:00:00 - 08.07.2020 08:00:00 (MDT)Miles City MT, United States of America (74230): precipitation: 02.07.2020 08:00:00 - 08.07.2020 08:00:00 (MDT)
Date & Time tt [°C] td [°C] ff [km/h] ff [kn] fx [km/h] fx [kn] dd ppp [hPa] vv [km] rr [mm]
08.07.2020 08:00:00 15,6 11,7 11 6 - - S 1010,2 16 -
08.07.2020 07:00:00 12,8 11,7 8 4 - - SSE 1010,1 16 -
08.07.2020 06:00:00 12,2 10,6 8 4 - - S 1009,6 16 -
08.07.2020 05:00:00 11,7 10,6 8 4 - - SSW 1009,1 16 -
08.07.2020 04:00:00 11,7 10,6 11 6 - - S 1009,0 16 -
08.07.2020 03:00:00 13,3 11,1 11 6 - - W 1008,8 16 -
08.07.2020 02:00:00 13,9 11,1 13 7 - - W 1008,6 16 -
08.07.2020 01:00:00 12,8 11,1 11 6 - - WSW 1008,0 16 -
08.07.2020 00:00:00 13,9 11,1 9 5 - - NNW 1007,5 16 -
07.07.2020 23:00:00 15,6 10,6 8 4 - - N 1007,0 16 -
07.07.2020 22:00:00 18,9 10,0 28 15 - - NNW 1006,7 16 -
07.07.2020 21:00:00 18,9 11,1 21 11 - - NW 1004,5 16 -
07.07.2020 20:00:00 20,6 11,1 24 13 120 65 WNW 1003,3 16 0,0
07.07.2020 19:00:00 23,3 11,1 61 33 120 65 NW 1000,3 11 0,0
07.07.2020 18:00:00 28,9 16,7 9 5 - - - 1001,8 16 -
07.07.2020 17:00:00 30,6 16,7 29 16 48 26 SE 999,9 16 -
07.07.2020 16:00:00 31,1 15,0 29 16 54 29 SE 1001,0 16 0,0
07.07.2020 15:00:00 28,3 15,0 29 16 - - SE 1001,5 16 0,0
07.07.2020 14:00:00 27,8 15,6 11 6 - - SE 1003,2 16 -
07.07.2020 13:00:00 30,0 16,1 31 17 - - SE 1004,1 16 -
07.07.2020 12:00:00 26,1 16,7 18 10 - - SSE 1006,2 16 -
07.07.2020 11:00:00 25,0 16,7 22 12 - - SE 1006,2 16 -
07.07.2020 10:00:00 23,9 16,1 21 11 - - ESE 1007,7 16 -
07.07.2020 09:00:00 22,2 16,1 16 9 - - SSE 1009,8 16 -
07.07.2020 08:00:00 20,0 15,6 5 3 - - E 1009,7 16 -
07.07.2020 07:00:00 17,2 15,0 13 7 - - ENE 1009,8 16 -
07.07.2020 06:00:00 15,0 14,4 9 5 - - NE 1010,6 16 0,3
07.07.2020 05:00:00 13,9 13,9 9 5 - - NE 1011,1 16 0,0
07.07.2020 04:00:00 14,4 13,9 9 5 - - ENE 1011,1 16 -
07.07.2020 03:00:00 15,6 14,4 8 4 - - ENE 1011,6 16 -
07.07.2020 02:00:00 15,6 15,0 13 7 - - NE 1012,2 16 -
07.07.2020 01:00:00 16,1 15,0 11 6 - - NE 1013,0 16 -
07.07.2020 00:00:00 16,7 13,9 11 6 - - NNE 1013,3 16 -
06.07.2020 23:00:00 18,3 14,4 9 5 - - SE 1013,7 16 -
06.07.2020 22:00:00 18,9 15,0 11 6 - - SSE 1013,3 16 -
06.07.2020 21:00:00 20,6 14,4 11 6 - - SE 1012,5 16 -
06.07.2020 20:00:00 24,4 11,7 13 7 - - ESE 1011,7 16 -
06.07.2020 19:00:00 26,1 9,4 13 7 - - E 1011,1 16 -
06.07.2020 18:00:00 26,1 12,2 28 15 - - NNE 1011,5 16 0,0
06.07.2020 17:00:00 26,1 7,8 22 12 - - N 1012,0 16 0,0
06.07.2020 16:00:00 29,4 8,9 9 5 - - E 1011,9 16 0,0
06.07.2020 15:00:00 28,9 8,9 9 5 - - SE 1012,6 16 0,0
06.07.2020 14:00:00 26,1 13,9 9 5 - - E 1013,2 16 -
06.07.2020 13:00:00 23,9 13,3 9 5 - - E 1014,7 16 0,0
06.07.2020 12:00:00 20,6 15,0 0 0 - - N 1016,4 16 0,3
06.07.2020 11:00:00 20,6 13,3 15 8 - - SSW 1016,6 16 -
06.07.2020 10:00:00 20,0 14,4 11 6 - - SSE 1015,7 16 -
06.07.2020 09:00:00 21,1 14,4 8 4 - - NNE 1015,5 16 -
06.07.2020 08:00:00 18,9 13,9 9 5 - - SE 1015,0 16 -
06.07.2020 07:00:00 18,3 13,9 0 0 - - N 1014,8 16 -
06.07.2020 06:00:00 16,1 13,3 5 3 - - SSE 1015,3 16 -
06.07.2020 05:00:00 14,4 13,9 8 4 - - W 1015,1 16 -
06.07.2020 04:00:00 15,6 13,9 11 6 - - SE 1014,2 16 -
06.07.2020 03:00:00 16,7 13,9 8 4 - - W 1015,1 16 -
06.07.2020 02:00:00 17,2 13,3 13 7 - - SSW 1014,9 16 -
06.07.2020 01:00:00 17,2 13,9 16 9 - - SSW 1015,1 16 -
06.07.2020 00:00:00 18,9 13,9 15 8 - - S 1014,4 16 -
05.07.2020 23:00:00 21,1 13,9 5 3 - - ESE 1014,5 16 0,0
05.07.2020 22:00:00 23,3 11,1 11 6 - - N 1015,2 16 -
05.07.2020 21:00:00 23,9 10,6 9 5 - - N 1013,4 10 -
05.07.2020 20:00:00 26,1 10,0 18 10 - - NNE 1012,7 16 -
05.07.2020 19:00:00 28,3 8,9 18 10 - - N 1012,7 16 -
05.07.2020 18:00:00 29,4 8,3 16 9 - - NNE 1012,4 16 -
05.07.2020 17:00:00 30,0 8,9 18 10 - - NNW 1013,0 16 -
05.07.2020 16:00:00 30,0 8,9 11 6 - - WNW 1013,5 16 -
05.07.2020 15:00:00 30,0 10,0 22 12 - - WNW 1013,8 16 -
05.07.2020 14:00:00 29,4 11,1 - - - - - 1013,7 16 -
05.07.2020 13:00:00 27,8 12,8 11 6 - - W 1014,1 16 -
05.07.2020 12:00:00 26,7 13,3 11 6 - - W 1014,5 16 -
05.07.2020 11:00:00 25,0 13,9 8 4 - - SW 1014,8 16 -
05.07.2020 10:00:00 23,3 15,0 8 4 - - - 1015,2 16 -
05.07.2020 09:00:00 21,7 13,9 0 0 - - N 1015,8 16 -
05.07.2020 08:00:00 19,4 15,0 5 3 - - WNW 1015,8 16 -
05.07.2020 07:00:00 17,2 15,0 13 7 - - WNW 1014,8 16 -
05.07.2020 06:00:00 18,9 14,4 15 8 - - SSW 1013,8 16 -
05.07.2020 05:00:00 17,8 15,6 16 9 - - SE 1012,9 16 -
05.07.2020 04:00:00 17,2 15,6 13 7 - - NNW 1013,3 16 1,0
05.07.2020 03:00:00 16,7 15,0 15 8 - - NW 1013,5 16 -
05.07.2020 02:00:00 18,3 14,4 9 5 - - NNE 1013,6 16 -
05.07.2020 01:00:00 19,4 14,4 8 4 - - E 1013,0 16 -
05.07.2020 00:00:00 20,0 13,9 13 7 - - N 1012,7 16 -
04.07.2020 23:00:00 19,4 14,4 24 13 - - NNW 1013,0 16 -
04.07.2020 22:00:00 20,6 13,9 13 7 - - ESE 1011,4 16 -
04.07.2020 21:00:00 21,1 15,6 16 9 - - E 1011,5 16 -
04.07.2020 20:00:00 21,7 15,0 26 14 96 52 E 1012,7 16 3,6
04.07.2020 19:00:00 27,8 12,8 21 11 70 38 ESE 1010,2 10 -
04.07.2020 18:00:00 31,1 13,3 18 10 - - E 1009,0 16 -
04.07.2020 17:00:00 33,3 13,9 16 9 - - ESE 1010,4 16 -
04.07.2020 16:00:00 32,8 15,6 9 5 - - - 1011,4 16 -
04.07.2020 15:00:00 32,2 16,1 18 10 - - SE 1012,2 16 -
04.07.2020 14:00:00 30,6 16,1 15 8 - - S 1013,3 16 -
04.07.2020 13:00:00 29,4 16,7 15 8 - - SSE 1013,8 16 -
04.07.2020 12:00:00 28,3 16,7 24 13 - - S 1014,4 16 -
04.07.2020 11:00:00 27,2 16,1 26 14 - - S 1015,0 16 -
04.07.2020 10:00:00 25,6 16,1 26 14 - - S 1015,3 16 -
04.07.2020 09:00:00 22,8 16,1 15 8 - - SSE 1015,6 16 -
04.07.2020 08:00:00 20,6 15,0 11 6 - - SSE 1015,5 16 -
04.07.2020 07:00:00 18,9 15,0 9 5 - - SSE 1014,8 16 -
04.07.2020 06:00:00 16,7 15,0 8 4 - - SE 1014,7 16 -
04.07.2020 05:00:00 17,2 15,0 9 5 - - SE 1013,8 16 -
04.07.2020 04:00:00 17,8 15,0 5 3 - - SSE 1013,8 16 -
04.07.2020 03:00:00 17,8 16,1 13 7 - - WNW 1014,4 16 -
04.07.2020 02:00:00 17,8 16,1 13 7 - - SE 1013,3 16 -
04.07.2020 01:00:00 18,9 16,1 15 8 - - W 1014,4 16 -
04.07.2020 00:00:00 20,6 15,6 0 0 - - N 1014,4 16 -
03.07.2020 23:00:00 18,3 16,7 11 6 - - SE 1015,0 16 -
03.07.2020 22:00:00 20,6 16,1 5 3 - - NE 1013,9 16 -
03.07.2020 21:00:00 20,0 17,2 13 7 - - E 1014,6 16 -
03.07.2020 20:00:00 20,0 16,1 18 10 61 33 NNW 1015,4 10 1,3
03.07.2020 19:00:00 30,0 13,9 9 5 - - N 1012,2 16 -
03.07.2020 18:00:00 31,1 14,4 13 7 - - NNE 1011,8 16 -
03.07.2020 17:00:00 33,3 12,8 15 8 - - NNE 1011,9 16 -
03.07.2020 16:00:00 33,3 10,6 13 7 - - E 1012,5 16 -
03.07.2020 15:00:00 32,8 11,7 9 5 - - ENE 1013,0 16 -
03.07.2020 14:00:00 30,6 15,0 5 3 - - - 1013,5 16 -
03.07.2020 13:00:00 29,4 16,1 11 6 - - ESE 1014,0 16 -
03.07.2020 12:00:00 27,8 16,1 5 3 - - N 1014,3 16 -
03.07.2020 11:00:00 26,1 15,6 5 3 - - N 1014,7 16 -
03.07.2020 10:00:00 24,4 15,0 8 4 - - - 1014,7 16 -
03.07.2020 09:00:00 22,2 14,4 0 0 - - N 1014,7 16 -
03.07.2020 08:00:00 20,0 13,9 11 6 - - NE 1014,3 16 -
03.07.2020 07:00:00 17,8 13,3 8 4 - - NNE 1014,1 16 -
03.07.2020 06:00:00 15,6 12,2 15 8 - - NNE 1013,7 16 -
03.07.2020 05:00:00 15,6 11,7 15 8 - - NNE 1013,6 16 -
03.07.2020 04:00:00 16,7 11,1 16 9 - - NNE 1013,4 16 -
03.07.2020 03:00:00 17,2 11,7 16 9 - - NNE 1013,6 16 -
03.07.2020 02:00:00 17,8 11,1 16 9 - - NE 1013,6 16 -
03.07.2020 01:00:00 18,3 11,7 9 5 - - NNE 1013,6 16 -
03.07.2020 00:00:00 18,9 11,7 15 8 - - NNE 1013,4 16 -
02.07.2020 23:00:00 20,0 11,7 13 7 - - NNE 1013,4 16 -
02.07.2020 22:00:00 22,8 10,0 9 5 - - E 1013,1 16 -
02.07.2020 21:00:00 23,3 11,1 11 6 - - NNE 1011,6 16 -
02.07.2020 20:00:00 26,7 10,0 11 6 - - NE 1010,9 16 -
02.07.2020 19:00:00 28,3 8,3 15 8 - - NE 1010,4 16 -
02.07.2020 18:00:00 28,9 7,8 15 8 - - ENE 1010,5 16 -
02.07.2020 17:00:00 28,9 6,7 0 0 - - N 1011,1 16 -
02.07.2020 16:00:00 28,3 7,2 13 7 - - NE 1011,0 16 -
02.07.2020 15:00:00 - - - - - - - - - -
02.07.2020 14:00:00 - - - - - - - - - -
02.07.2020 13:00:00 - - - - - - - - - -
02.07.2020 12:00:00 - - - - - - - - - -
02.07.2020 11:00:00 23,9 8,3 13 7 - - N 1011,1 16 -
02.07.2020 10:00:00 21,7 8,9 15 8 - - WNW 1010,9 16 -
02.07.2020 09:00:00 21,1 10,0 21 11 - - WNW 1009,7 16 -
02.07.2020 08:00:00 17,2 10,0 9 5 - - SSE 1008,9 16 -

tt = temperature
td = dewpoint
ff = wind speed
fx = gusts
dd = wind direction
ppp = reduced air pressure
vv = visibility
rr = precipitation

Next stations